Voltar ao catálogo

COSMOS 1844

AtivoMilitarLEO
NORAD 17973·PAYLOAD·🇷🇺 Russia

Lançado May 13, 1987 de Baikonur Cosmodrome

Loading…

Próximas Passagens (próximas 24 horas)

TLE

AtualizadoSource: Space-Track

Época: Sep 14, 2026, 06:38 UTC

1 17973U 87041A   26257.27673434 -.00000279  00000-0 -11962-3 0  9997
2 17973  70.9017 356.3858 0028344  99.8992 260.5331 14.14580770 30255

Acompanhe COSMOS 1844 em tempo real com AllMySat

Download on the App Store